TGL454 LFMN-LFLL

Flight info

Callsign TGL454
Flight time 0h 38m
Altitude 22000
Route BODRU DCT KOTIT/N0373F180 Y42 LASUR Z42 PINED
Aircraft A320/M-SDE3FGHIRWY/LB1

Departure

Time 2026-05-01 12:59
Airport Nice-Côte d'Azur Airport (LFMN)

Arrival

Time 2026-05-01 13:37
Airport Lyon Saint-Exupéry Airport (LFLL)
Time Latitude Longitude Altitude Speed Heading
2026-05-01 12:28 43.65869 7.20620 26 ft 0 kts 317°
2026-05-01 12:48 43.65853 7.20640 25 ft 4 kts 317°
2026-05-01 12:48 43.65838 7.20659 26 ft 4 kts 323°
2026-05-01 12:48 43.65815 7.20676 22 ft 4 kts 350°
2026-05-01 12:49 43.65790 7.20673 22 ft 4 kts 35°
2026-05-01 12:49 43.65784 7.20667 22 ft 0 kts 44°
2026-05-01 12:53 43.65788 7.20672 22 ft 6 kts 44°
2026-05-01 12:54 43.65854 7.20763 22 ft 16 kts 48°
2026-05-01 12:54 43.65698 7.20891 22 ft 18 kts 172°
2026-05-01 12:54 43.65570 7.20919 23 ft 19 kts 171°
2026-05-01 12:55 43.65302 7.20890 22 ft 21 kts 224°
2026-05-01 12:55 43.65193 7.20741 22 ft 23 kts 225°
2026-05-01 12:55 43.65075 7.20582 22 ft 24 kts 224°
2026-05-01 12:56 43.64951 7.20410 22 ft 26 kts 225°
2026-05-01 12:56 43.64844 7.20261 22 ft 20 kts 225°
2026-05-01 12:56 43.64766 7.20184 22 ft 0 kts 188°
2026-05-01 12:57 43.64702 7.20291 22 ft 12 kts 66°
2026-05-01 12:57 43.64733 7.20333 22 ft 0 kts 44°
2026-05-01 12:58 43.64885 7.20545 22 ft 70 kts 46°
2026-05-01 12:59 43.66124 7.22265 267 ft 157 kts 46°
2026-05-01 12:59 43.66781 7.23472 784 ft 163 kts 75°
2026-05-01 12:59 43.65751 7.26123 2060 ft 177 kts 136°
2026-05-01 13:00 43.63808 7.28740 2965 ft 211 kts 133°
2026-05-01 13:00 43.62762 7.30175 3799 ft 213 kts 132°
2026-05-01 13:01 43.60054 7.31694 5257 ft 233 kts 192°
2026-05-01 13:01 43.58577 7.30696 5965 ft 241 kts 212°
2026-05-01 13:01 43.55794 7.28020 7488 ft 247 kts 232°
2026-05-01 13:02 43.55037 7.25918 8182 ft 247 kts 263°
2026-05-01 13:07 43.88146 6.81674 17393 ft 387 kts 321°
2026-05-01 13:07 43.90221 6.79283 18028 ft 389 kts 321°
2026-05-01 13:07 43.92315 6.76867 18631 ft 394 kts 321°
2026-05-01 13:08 43.94417 6.74417 19180 ft 397 kts 320°
2026-05-01 13:08 43.96467 6.71825 19686 ft 401 kts 317°
2026-05-01 13:08 43.98463 6.69108 20224 ft 402 kts 316°
2026-05-01 13:08 44.00430 6.66322 20739 ft 406 kts 315°
2026-05-01 13:09 44.02376 6.63536 21236 ft 409 kts 315°
2026-05-01 13:09 44.04366 6.60704 21770 ft 410 kts 315°
2026-05-01 13:09 44.06379 6.57872 22177 ft 413 kts 315°
2026-05-01 13:09 44.08417 6.55036 22280 ft 418 kts 316°
2026-05-01 13:10 44.10481 6.52182 22285 ft 419 kts 316°
2026-05-01 13:10 44.12554 6.49319 22282 ft 419 kts 316°
2026-05-01 13:10 44.14621 6.46464 22282 ft 419 kts 315°
2026-05-01 13:10 44.16687 6.43597 22281 ft 420 kts 315°
2026-05-01 13:11 44.18724 6.40760 22288 ft 423 kts 315°
2026-05-01 13:11 44.20795 6.37835 22277 ft 423 kts 312°
2026-05-01 13:11 44.22672 6.34673 22279 ft 424 kts 309°
2026-05-01 13:11 44.24518 6.31485 22277 ft 422 kts 309°
2026-05-01 13:12 44.26358 6.28307 22271 ft 421 kts 309°
2026-05-01 13:12 44.28193 6.25126 22272 ft 421 kts 309°
2026-05-01 13:12 44.30031 6.21939 22267 ft 422 kts 309°
2026-05-01 13:12 44.31871 6.18743 22257 ft 422 kts 309°
2026-05-01 13:13 44.33712 6.15550 22252 ft 423 kts 309°
2026-05-01 13:13 44.35556 6.12348 22252 ft 423 kts 309°
2026-05-01 13:13 44.37405 6.09138 22252 ft 424 kts 309°
2026-05-01 13:13 44.39226 6.05974 22260 ft 424 kts 308°
2026-05-01 13:14 44.41074 6.02760 22263 ft 424 kts 308°
2026-05-01 13:14 44.42917 5.99543 22266 ft 424 kts 308°
2026-05-01 13:14 44.44759 5.96318 22272 ft 424 kts 308°
2026-05-01 13:14 44.46600 5.93092 22273 ft 424 kts 308°
2026-05-01 13:15 44.48440 5.89869 22272 ft 424 kts 308°
2026-05-01 13:15 44.50279 5.86645 22269 ft 423 kts 308°
2026-05-01 13:15 44.52114 5.83425 22265 ft 423 kts 308°
2026-05-01 13:15 44.53929 5.80239 22270 ft 424 kts 308°
2026-05-01 13:16 44.55766 5.77012 22272 ft 423 kts 308°
2026-05-01 13:16 44.57602 5.73777 22272 ft 424 kts 308°
2026-05-01 13:16 44.59432 5.70546 22277 ft 423 kts 307°
2026-05-01 13:17 44.65181 5.61147 22269 ft 425 kts 320°
2026-05-01 13:17 44.67631 5.58874 22279 ft 421 kts 332°
2026-05-01 13:18 44.73154 5.56583 22285 ft 419 kts 354°
2026-05-01 13:18 44.76049 5.56112 22211 ft 419 kts 354°
2026-05-01 13:18 44.78952 5.55636 21297 ft 424 kts 354°
2026-05-01 13:18 44.81890 5.55150 20524 ft 425 kts 354°
2026-05-01 13:19 44.84824 5.54661 19891 ft 423 kts 354°
2026-05-01 13:19 44.87736 5.54174 19215 ft 417 kts 354°
2026-05-01 13:19 44.93437 5.53220 17151 ft 406 kts 354°
2026-05-01 13:20 44.96178 5.52753 16637 ft 388 kts 354°
2026-05-01 13:20 44.98805 5.52308 16116 ft 373 kts 354°
2026-05-01 13:20 45.01298 5.52090 15658 ft 357 kts
2026-05-01 13:21 45.06154 5.52057 14754 ft 345 kts
2026-05-01 13:21 45.08548 5.52043 14304 ft 343 kts
2026-05-01 13:21 45.10935 5.52028 13819 ft 344 kts
2026-05-01 13:21 45.13323 5.52011 13349 ft 343 kts
2026-05-01 13:22 45.15725 5.51993 13093 ft 351 kts
2026-05-01 13:22 45.18193 5.51970 13012 ft 357 kts
2026-05-01 13:22 45.20650 5.51942 12889 ft 358 kts
2026-05-01 13:22 45.23137 5.51909 12749 ft 357 kts
2026-05-01 13:23 45.25622 5.51876 12610 ft 357 kts
2026-05-01 13:23 45.28099 5.51683 12474 ft 357 kts 352°
2026-05-01 13:23 45.30522 5.50893 12333 ft 357 kts 345°
2026-05-01 13:23 45.32921 5.49978 12196 ft 357 kts 345°
2026-05-01 13:24 45.35304 5.49003 12057 ft 356 kts 340°
2026-05-01 13:24 45.37529 5.47495 11924 ft 353 kts 328°
2026-05-01 13:24 45.39622 5.45662 11787 ft 353 kts 328°
2026-05-01 13:25 45.43784 5.42026 11518 ft 353 kts 328°
2026-05-01 13:25 45.45874 5.40203 11379 ft 352 kts 327°
2026-05-01 13:25 45.47955 5.38386 11245 ft 350 kts 328°
2026-05-01 13:25 45.50128 5.36832 11114 ft 349 kts 339°
2026-05-01 13:26 45.52467 5.35958 10968 ft 348 kts 351°
2026-05-01 13:26 45.54884 5.35714 10837 ft 349 kts 358°
2026-05-01 13:26 45.57282 5.35577 10698 ft 339 kts 358°
2026-05-01 13:26 45.59595 5.35445 10569 ft 326 kts 358°
2026-05-01 13:27 45.61793 5.35320 10456 ft 315 kts 357°
2026-05-01 13:27 45.63946 5.35194 10293 ft 306 kts 358°
2026-05-01 13:27 45.68121 5.34946 9751 ft 297 kts 357°
2026-05-01 13:28 45.72226 5.34695 9105 ft 293 kts 357°
2026-05-01 13:28 45.74262 5.34570 8784 ft 292 kts 357°
2026-05-01 13:29 45.78126 5.33164 8154 ft 287 kts 330°
2026-05-01 13:29 45.81630 5.30523 7545 ft 285 kts 332°
2026-05-01 13:30 45.87769 5.23637 6314 ft 282 kts 317°
2026-05-01 13:31 45.90662 5.19903 5824 ft 271 kts 316°
2026-05-01 13:31 45.93242 5.13780 5079 ft 231 kts 270°
2026-05-01 13:32 45.92924 5.09296 4640 ft 218 kts 249°
2026-05-01 13:33 45.89618 5.07387 3959 ft 173 kts 172°
2026-05-01 13:33 45.87382 5.07562 3521 ft 149 kts 178°
2026-05-01 13:34 45.85408 5.07749 3125 ft 139 kts 175°
2026-05-01 13:34 45.83479 5.07972 2764 ft 138 kts 174°
2026-05-01 13:35 45.81594 5.08200 2398 ft 135 kts 174°
2026-05-01 13:35 45.80653 5.08315 2232 ft 136 kts 174°
2026-05-01 13:35 45.78782 5.08542 1874 ft 134 kts 175°
2026-05-01 13:36 45.77846 5.08656 1690 ft 135 kts 175°
2026-05-01 13:36 45.76919 5.08769 1501 ft 135 kts 175°
2026-05-01 13:36 45.75026 5.09000 1142 ft 137 kts 174°
2026-05-01 13:37 45.74090 5.09129 958 ft 134 kts 172°
2026-05-01 13:37 45.73472 5.09205 833 ft 135 kts 175°
2026-05-01 13:37 45.72360 5.09315 813 ft 93 kts 175°
2026-05-01 13:37 45.72004 5.09366 820 ft 25 kts 173°
2026-05-01 13:38 45.71701 5.09293 820 ft 22 kts 204°
2026-05-01 13:38 45.71635 5.09147 814 ft 14 kts 264°
2026-05-01 13:38 45.71625 5.09010 814 ft 13 kts 264°
2026-05-01 13:39 45.71617 5.08891 814 ft 11 kts 264°
2026-05-01 13:39 45.71608 5.08772 810 ft 14 kts 264°
2026-05-01 13:39 45.71605 5.08732 808 ft 1 kts 263°
2026-05-01 13:39 45.71603 5.08708 808 ft 4 kts 263°
2026-05-01 13:40 45.71599 5.08663 807 ft 6 kts 263°
2026-05-01 13:40 45.71596 5.08598 805 ft 7 kts 268°
2026-05-01 13:40 45.71611 5.08524 803 ft 9 kts 312°
2026-05-01 13:40 45.71667 5.08496 802 ft 8 kts 355°
2026-05-01 13:41 45.71722 5.08490 802 ft 7 kts 355°
2026-05-01 13:41 45.71771 5.08484 802 ft 7 kts 355°
2026-05-01 13:41 45.71816 5.08479 802 ft 6 kts 355°
2026-05-01 13:41 45.71856 5.08473 802 ft 6 kts 355°
2026-05-01 13:42 45.71896 5.08469 802 ft 9 kts 355°
2026-05-01 13:42 45.71959 5.08360 799 ft 15 kts 285°
2026-05-01 13:42 45.72019 5.08257 797 ft 15 kts 358°
2026-05-01 13:42 45.72105 5.08286 797 ft 6 kts 18°
2026-05-01 13:43 45.72123 5.08290 797 ft 1 kts 335°
2026-05-01 13:43 45.72123 5.08283 797 ft 0 kts 283°
2026-05-01 13:43 45.72103 5.08248 797 ft 5 kts 209°
2026-05-01 13:43 45.72068 5.08233 796 ft 5 kts 196°
2026-05-01 13:44 45.72059 5.08208 796 ft 3 kts 258°
2026-05-01 13:44 45.72060 5.08185 796 ft 2 kts 279°
2026-05-01 13:44 45.72067 5.08159 796 ft 6 kts 295°
2026-05-01 13:44 45.72078 5.08129 797 ft 0 kts 299°